Weather History for Mount Pleasant, IA

Change the Weather History Date:

Thursday, February 13, 2014

  Actual Average Record
Temperature  
Mean Temperature 29 °F -  
Max Temperature 44 °F 36 °F 61 °F (1954)
Min Temperature 14 °F 18 °F -13 °F (1986)
Degree Days  
Heating Degree Days 36    
Moisture  
Dew Point 17 °F    
Average Humidity 65    
Maximum Humidity 74    
Minimum Humidity 52    
Precipitation  
Precipitation 0.00 in - - ()
Sea Level Pressure  
Sea Level Pressure 29.76 in    
Wind  
Wind Speed 12 mph (SW)    
Max Wind Speed 24 mph    
Max Gust Speed 26 mph    
Visibility 10 miles    
Events      
Averages and records for this station are not official NWS values.
T = Trace of Precipitation, MM = Missing Value Source: NWS Daily Summary

Daily Weather History Graph

Daily Weather History Graph

Search for Another Location

Airport:

Trip Planner

Search our weather history database for the weather conditions in past years. The results will help you decide how hot, cold, wet, or windy it might be!

Date:

Astronomy

Feb. 13, 2014 Rise Set
Actual Time 7:02 AM CST 5:38 PM CST
Civil Twilight 6:34 AM CST 6:06 PM CST
Nautical Twilight 6:02 AM CST 6:38 PM CST
Astronomical Twilight 5:30 AM CST 7:10 PM CST
Moon 4:46 PM CST (2/13) 5:56 AM CST (2/13)
Length of Visible Light 11h 31m
Length of Day
10h 35m
Waxing Gibbous, 99% of the Moon is Illuminated
Feb 13
Waxing Gibbous
Feb 14
Full
Feb 22
Last Quarter
Mar 1
New
Mar 8
First Quarter

Hourly Weather History & Observations

Time (CST) Temp. Windchill Dew Point Humidity Pressure Visibility Wind Dir Wind Speed Gust Speed Precip Events Conditions
12:15 AM 14.0 °F 2.9 °F 7.0 °F 74% 29.95 in 10.0 mi SSE 8.1 mph - N/A   Clear
12:35 AM 15.8 °F 5.1 °F 7.7 °F 70% 29.95 in 10.0 mi South 8.1 mph - N/A   Clear
12:55 AM 15.8 °F 4.2 °F 7.7 °F 70% 29.94 in 10.0 mi SSE 9.2 mph - N/A   Clear
1:15 AM 15.8 °F 6.1 °F 7.5 °F 70% 29.94 in 10.0 mi SSE 6.9 mph - N/A   Clear
1:35 AM 15.3 °F 5.4 °F 7.3 °F 71% 29.93 in 10.0 mi SSE 6.9 mph - N/A   Clear
1:55 AM 16.0 °F 6.3 °F 7.5 °F 69% 29.91 in 10.0 mi SSE 6.9 mph - N/A   Clear
2:15 AM 17.4 °F 6.2 °F 7.7 °F 66% 29.89 in 10.0 mi SSE 9.2 mph - N/A   Clear
2:35 AM 17.6 °F 8.2 °F 7.7 °F 65% 29.91 in 10.0 mi SSW 6.9 mph - N/A   Clear
2:55 AM 18.0 °F 6.1 °F 7.7 °F 64% 29.90 in 10.0 mi South 10.4 mph - N/A   Clear
3:15 AM 17.6 °F 5.7 °F 7.7 °F 65% 29.89 in 10.0 mi South 10.4 mph - N/A   Clear
3:35 AM 17.6 °F 5.7 °F 7.7 °F 65% 29.89 in 10.0 mi South 10.4 mph - N/A   Clear
3:55 AM 18.1 °F 7.9 °F 7.7 °F 64% 29.90 in 10.0 mi SSW 8.1 mph - N/A   Clear
4:15 AM 17.6 °F 6.4 °F 8.1 °F 66% 29.88 in 10.0 mi South 9.2 mph - N/A   Clear
4:35 AM 18.1 °F 7.1 °F 8.4 °F 66% 29.87 in 10.0 mi South 9.2 mph - N/A   Clear
4:55 AM 18.9 °F 7.2 °F 8.4 °F 64% 29.87 in 10.0 mi South 10.4 mph - N/A   Clear
5:15 AM 18.9 °F 7.2 °F 8.2 °F 63% 29.86 in 10.0 mi South 10.4 mph - N/A   Clear
5:35 AM 19.0 °F 5.6 °F 8.4 °F 63% 29.85 in 10.0 mi South 13.8 mph - N/A   Scattered Clouds
5:55 AM 20.1 °F 7.5 °F 9.1 °F 62% 29.85 in 10.0 mi SSW 12.7 mph - N/A   Overcast
6:15 AM 20.3 °F 9.0 °F 9.5 °F 63% 29.85 in 10.0 mi SSW 10.4 mph - N/A   Overcast
6:35 AM 21.0 °F 9.9 °F 10.4 °F 64% 29.85 in 10.0 mi SW 10.4 mph - N/A   Overcast
6:55 AM 20.8 °F 9.7 °F 10.2 °F 64% 29.84 in 10.0 mi SSW 10.4 mph - N/A   Overcast
7:15 AM 19.6 °F 7.4 °F 9.5 °F 65% 29.81 in 10.0 mi South 11.5 mph - N/A   Mostly Cloudy
7:35 AM 19.8 °F 7.1 °F 10.0 °F 66% 29.80 in 10.0 mi South 12.7 mph - N/A   Scattered Clouds
7:55 AM 20.3 °F 7.7 °F 11.1 °F 68% 29.79 in 10.0 mi South 12.7 mph - N/A   Scattered Clouds
8:15 AM 21.9 °F 8.2 °F 12.7 °F 68% 29.76 in 10.0 mi South 16.1 mph - N/A   Scattered Clouds
8:35 AM 25.0 °F 12.2 °F 14.9 °F 66% 29.77 in 10.0 mi South 16.1 mph - N/A   Mostly Cloudy
8:55 AM 25.5 °F 12.4 °F 16.2 °F 68% 29.77 in 10.0 mi SSW 17.3 mph - N/A   Overcast
9:15 AM 26.1 °F 14.5 °F 17.2 °F 69% 29.77 in 7.0 mi SSW 13.8 mph - N/A   Overcast
9:35 AM 27.5 °F 14.2 °F 19.0 °F 71% 29.75 in 7.0 mi SSW 19.6 mph - N/A   Overcast
9:55 AM 28.8 °F 16.2 °F 20.3 °F 71% 29.74 in 7.0 mi SSW 18.4 mph 24.2 mph N/A   Mostly Cloudy
10:15 AM 30.0 °F 18.3 °F 21.2 °F 70% 29.74 in 7.0 mi SSW 17.3 mph 26.5 mph N/A   Scattered Clouds
10:35 AM 30.9 °F 19.4 °F 22.1 °F 70% 29.73 in 7.0 mi SSW 17.3 mph 23.0 mph N/A   Scattered Clouds
10:55 AM 32.0 °F 20.5 °F 23.2 °F 70% 29.72 in 5.0 mi SW 18.4 mph - N/A   Haze
11:15 AM 32.4 °F 19.4 °F 23.7 °F 70% 29.70 in 7.0 mi SW 24.2 mph - N/A   Clear
11:35 AM 33.6 °F 21.3 °F 24.1 °F 68% 29.70 in 7.0 mi SW 23.0 mph - N/A   Clear
11:55 AM 34.3 °F 22.9 °F 24.8 °F 68% 29.69 in 7.0 mi SW 20.7 mph 25.3 mph N/A   Clear
12:15 PM 35.6 °F 24.8 °F 25.0 °F 65% 29.67 in 7.0 mi SW 19.6 mph 26.5 mph N/A   Clear
12:35 PM 36.5 °F 26.7 °F 25.7 °F 65% 29.66 in 7.0 mi SW 17.3 mph - N/A   Clear
12:55 PM 37.6 °F 28.1 °F 26.1 °F 63% 29.65 in 10.0 mi SW 17.3 mph - N/A   Clear
1:35 PM 40.1 °F 31.6 °F 26.4 °F 58% 29.63 in 10.0 mi SW 16.1 mph - N/A   Clear
1:55 PM 40.5 °F 32.8 °F 27.0 °F 59% 29.62 in 10.0 mi SW 13.8 mph 19.6 mph N/A   Clear
2:15 PM 40.5 °F 32.5 °F 27.0 °F 59% 29.62 in 10.0 mi SW 15.0 mph - N/A   Clear
2:35 PM 40.8 °F 32.9 °F 27.5 °F 59% 29.62 in 10.0 mi SW 15.0 mph 21.9 mph N/A   Clear
2:55 PM 41.2 °F 32.7 °F 27.3 °F 58% 29.61 in 10.0 mi SW 17.3 mph 21.9 mph N/A   Clear
3:15 PM 41.9 °F 34.0 °F 27.1 °F 56% 29.61 in 10.0 mi WSW 16.1 mph 23.0 mph N/A   Clear
3:35 PM 41.9 °F 34.6 °F 27.7 °F 57% 29.62 in 10.0 mi WSW 13.8 mph 21.9 mph N/A   Clear
3:55 PM 41.5 °F 35.0 °F 28.2 °F 59% 29.62 in 10.0 mi WSW 11.5 mph - N/A   Clear
4:15 PM 42.4 °F 35.7 °F 27.9 °F 56% 29.63 in 10.0 mi West 12.7 mph 18.4 mph N/A   Clear
4:35 PM 44.2 °F 36.7 °F 27.5 °F 52% 29.64 in 10.0 mi West 17.3 mph 21.9 mph N/A   Clear
4:55 PM 43.9 °F 36.5 °F 28.4 °F 55% 29.64 in 10.0 mi WNW 16.1 mph 26.5 mph N/A   Clear
5:15 PM 42.4 °F 34.7 °F 28.8 °F 58% 29.65 in 10.0 mi WNW 16.1 mph 23.0 mph N/A   Clear
5:35 PM 41.2 °F 32.7 °F 28.0 °F 60% 29.66 in 10.0 mi WNW 17.3 mph 21.9 mph N/A   Clear
5:55 PM 40.3 °F 32.6 °F 26.6 °F 58% 29.67 in 10.0 mi WNW 13.8 mph 23.0 mph N/A   Clear
6:15 PM 39.2 °F 30.8 °F 27.5 °F 63% 29.68 in 10.0 mi WNW 15.0 mph 26.5 mph N/A   Clear
6:35 PM 37.2 °F 30.0 °F 26.8 °F 66% 29.69 in 10.0 mi NW 10.4 mph 20.7 mph N/A   Clear
6:55 PM 35.8 °F 28.3 °F 25.7 °F 67% 29.70 in 10.0 mi NW 10.4 mph 17.3 mph N/A   Clear
7:15 PM 33.8 °F 25.8 °F 24.6 °F 69% 29.71 in 10.0 mi NW 10.4 mph 17.3 mph N/A   Clear
7:35 PM 32.0 °F 21.2 °F 23.2 °F 70% 29.71 in 10.0 mi NW 16.1 mph 20.7 mph N/A   Clear
7:55 PM 31.8 °F 22.8 °F 21.0 °F 64% 29.72 in 10.0 mi NW 11.5 mph 20.7 mph N/A   Clear
8:15 PM 30.0 °F 18.7 °F 20.3 °F 67% 29.74 in 10.0 mi NNW 16.1 mph 19.6 mph N/A   Clear
8:35 PM 28.4 °F 17.5 °F 18.9 °F 67% 29.74 in 10.0 mi WNW 13.8 mph - N/A   Clear
8:55 PM 27.0 °F 18.0 °F 18.1 °F 69% 29.75 in 10.0 mi NW 9.2 mph - N/A   Clear
9:15 PM 26.6 °F 16.2 °F 17.6 °F 69% 29.76 in 10.0 mi NW 11.5 mph 16.1 mph N/A   Clear
9:35 PM 25.5 °F 16.2 °F 17.1 °F 70% 29.75 in 10.0 mi NW 9.2 mph - N/A   Clear
9:55 PM 24.8 °F 16.1 °F 16.2 °F 70% 29.75 in 10.0 mi NW 8.1 mph - N/A   Clear
10:15 PM 24.1 °F 15.2 °F 15.4 °F 70% 29.75 in 10.0 mi NW 8.1 mph - N/A   Clear
10:35 PM 23.7 °F 14.0 °F 14.0 °F 66% 29.75 in 10.0 mi NW 9.2 mph - N/A   Clear
10:55 PM 23.2 °F 12.0 °F 12.7 °F 64% 29.75 in 10.0 mi WNW 11.5 mph 19.6 mph N/A   Clear
11:15 PM 22.3 °F 12.2 °F 10.9 °F 62% 29.75 in 10.0 mi WNW 9.2 mph 16.1 mph N/A   Clear
11:35 PM 21.6 °F 13.0 °F 10.4 °F 62% 29.76 in 10.0 mi NW 6.9 mph - N/A   Clear
11:55 PM 20.8 °F 13.2 °F 9.9 °F 63% 29.75 in 10.0 mi NW 5.8 mph - N/A   Clear